Terug naar catalogus

STARLINK-3935

ActiefCommunicatieVLEO
NORAD 52549·PAYLOAD·🇺🇸 United States

Gelanceerd May 13, 2022 vanaf Vandenberg Space Force Base

Loading…

Volgende Passages (komende 24 uur)

TLE

VersSource: CelesTrak SupGP

Epoch: Sep 15, 2026, 02:39 UTC

1 52549C 22051S   26258.11090278  .00048984  00000+0  14019-2 0  2583
2 52549  53.1580 347.0457 0001144  91.9504 138.7021 15.35365663    13

Volg STARLINK-3935 in realtime met AllMySat

Download on the App Store